Location: Fredericksburg
(30.2750°N, 98.8720°W)
Time: 16:11:37
(UTC-05:00)

Daily predictions for brighter satellites

Satellite Brightness Start Highest point End
(mag) Time Altitude Azimuth Time Altitude Azimuth Time Altitude Azimuth
SEDSat Delta rocket 4.1 20:28:16 10° W 20:35:07 88° N 20:41:44 10° E
Cosmos 1452 Rocket 4.3 20:31:17 10° SSE 20:35:48 30° E 20:40:20 10° NE
ALOS 2.6 20:31:40 10° S 20:36:18 72° W 20:40:58 10° NNW
Cosmos 839 Rocket 4.3 20:30:57 10° S 20:37:12 45° ESE 20:43:00 10° NE
Cosmos 1782 Rocket 3.7 20:34:14 10° S 20:38:26 52° E 20:42:39 10° NNE
GPS 2-05 Rocket1 3.4 20:36:33 10° W 20:39:53 55° NNW 20:43:08 10° ENE
Meteor 1-14 Rocket 4.3 20:35:59 10° S 20:41:43 84° E 20:47:20 10° N
ATLAS 2AS CENTAUR R/B 4.1 20:37:23 10° SE 20:41:53 17° ESE 20:46:34 10° ENE
Cosmos 1378 Rocket 3.6 20:39:21 10° N 20:43:44 63° E 20:48:05 10° SSE
Meteor 1-25 Rocket 4.3 20:38:35 10° S 20:44:22 68° E 20:50:09 10° NNE
Skynet4D Del rocket 4.3 20:39:08 10° WSW 20:46:03 55° S 20:52:04 10° E
SJ-6B 2.9 20:43:30 10° SSE 20:47:29 86° ENE 20:51:34 10° N
HJ-1C 3.4 20:44:42 10° SSE 20:48:07 75° ENE 20:51:32 10° N
NOSS 3-1 (A) 3.6 20:42:55 10° SSW 20:48:30 76° WNW 20:54:39 10° NNE
Cosmos 2360 4.2 20:43:29 10° S 20:49:07 66° ESE 20:54:45 10° NNE
Cosmos 407 Rocket 4.3 20:44:38 10° N 20:49:28 34° ENE 20:54:13 10° SE
Palapa 6 Rocket 4.4 20:44:32 10° WSW 20:49:33 40° S 20:55:23 11° ESE
Cosmos 921 Rocket 2.9 20:45:41 10° S 20:49:48 63° ESE 20:53:56 10° NNE
Cosmos 1812 3.0 20:46:24 10° N 20:50:10 48° E 20:53:54 10° SSE
Sich 1 Rocket 4.3 20:48:34 10° SSW 20:52:52 58° W 20:57:12 10° N
Cosmos 1461 3.1 20:51:49 10° NNW 20:56:19 84° ENE 21:00:57 10° SSE
CZ-4C R/B 3.0 20:49:42 10° NNW 20:57:11 72° ENE 21:05:14 10° SE
Meteor 1-18 Rocket 4.5 20:52:40 10° N 20:58:30 57° E 21:04:17 10° SSE
Cosmos 2297 Rocket 2.7 20:54:16 10° NNW 20:59:51 64° WSW 21:05:25 10° S
Cosmos 1939 Rocket 4.4 20:58:27 13° ESE 21:00:28 18° ENE 21:03:15 10° NNE
Cosmos 1975 Rocket 3.3 20:56:32 10° N 21:00:54 50° E 21:05:11 10° SSE
Cosmos 2026 Rocket 4.0 20:58:10 10° S 21:04:25 76° E 21:10:47 10° N
Cosmos 1655 Rocket 4.1 20:58:23 10° SSE 21:04:26 54° E 21:10:33 10° NNE
USA 186 2.2 21:04:59 13° SSE 21:07:43 43° ENE 21:10:56 10° N
Intercosmos 25 Rocket 3.3 21:04:47 10° NNW 21:07:57 63° W 21:11:14 10° S
Cosmos 1536 4.4 21:11:13 17° E 21:11:25 17° E 21:14:06 10° NE
Helios 1B rocket 3.7 21:08:40 10° NE 21:11:48 21° E 21:12:45 19° ESE
Okean 1 3.6 21:09:34 10° N 21:13:25 46° E 21:16:29 15° SSE
Iridium 30 3.9 21:12:33 10° S 21:15:15 76° E 21:18:30 10° N
Spot 2 Rocket 3.5 21:11:56 10° SSE 21:16:59 68° ENE 21:22:03 10° N
Cosmos 2322 Rocket 2.5 21:13:04 10° S 21:18:24 43° ESE 21:23:46 10° NE
Lacrosse 5 rocket 3.3 21:17:05 10° NNE 21:19:04 14° NE 21:20:14 12° ENE
SeaSat 1 3.0 21:18:25 10° NNE 21:23:17 62° WNW 21:28:07 10° SW
BREEZE-M DEB (TANK) 3.6 21:23:11 10° W 21:25:34 35° NNW 21:30:18 10° NE
Cosmos 1441 Rocket 3.5 21:22:39 10° NNW 21:26:22 66° W 21:30:03 10° S
NOSS 2-3 (C) 4.0 21:22:12 10° S 21:26:30 44° ESE 21:31:11 10° NE
Cosmos 2263 Rocket 4.0 21:24:05 10° NNE 21:26:49 14° ENE 21:28:02 13° ENE
Cosmos 1140 Rocket 4.3 21:22:43 10° N 21:27:26 33° ENE 21:29:22 25° ESE
Okean 2 Rocket 3.8 21:23:10 10° SSW 21:27:33 57° W 21:31:59 10° N
SL-16 R/B 2.3 21:22:09 10° S 21:27:37 53° ESE 21:33:08 10° NNE
Cosmos 405 Rocket 4.4 21:26:46 10° NNW 21:30:15 34° W 21:33:48 10° SSW
Cosmos 1954 Rocket 4.4 21:25:24 10° N 21:30:28 43° ENE 21:32:50 27° SE
OAO 3 Rocket 4.1 21:32:00 10° W 21:36:21 37° SSW 21:38:24 24° SSE
Helios 1A 3.7 21:38:36 33° E 21:39:10 35° ENE 21:43:02 10° N
Lacrosse 5 2.2 21:37:16 10° S 21:42:00 41° ESE 21:46:44 10° NE
Resurs 1-3 4.4 21:39:14 10° S 21:43:29 51° W 21:47:46 10° NNW
Envisat 3.0 21:41:48 16° S 21:45:54 80° WSW 21:50:59 10° NNW
ERS-1 Rocket 4.1 21:46:08 26° ENE 21:46:19 26° ENE 21:50:24 10° NNE
Uosat 12 SS-18 rocket 4.4 21:44:06 10° SSW 21:48:34 76° WNW 21:53:56 10° NNE
Meteor 1-5 Rocket 4.3 21:50:03 39° SE 21:51:14 45° E 21:56:16 10° NNE
Meteor 1-13 Rocket 4.3 21:47:41 10° N 21:53:38 70° E 21:56:25 33° SSE
Cosmos 2360 Rocket 3.3 21:55:38 26° ENE 21:55:38 26° ENE 21:58:46 10° NE
YAOGAN 6 2.6 21:55:17 61° NE 21:55:17 61° NE 21:58:31 10° N
Cosmos 1980 Rocket 4.5 21:50:30 10° WSW 21:55:02 25° WNW 21:59:36 10° N
GOES 2 Rocket 3.8 21:50:29 10° W 21:55:20 40° SSW 21:56:02 37° S
Atlas Centaur 2 2.6 21:53:29 10° W 22:01:31 89° N 22:04:26 38° E
Delta 2 Rocket 3.4 21:58:42 10° WSW 22:02:53 66° SSE 22:02:53 66° SSE
Meteor 2-4 Rocket 3.7 22:00:17 10° N 22:05:46 61° E 22:06:47 52° SE
NOSS 2-3 (D) 3.9 22:01:35 10° SW 22:06:06 72° WNW 22:11:07 10° NNE
OAO 1 Rocket 4.4 22:02:26 10° WSW 22:07:48 88° NNW 22:09:18 49° ENE
ATLAS 3B R/B 4.5 22:05:04 10° NNE 22:08:20 14° NE 22:09:41 13° ENE
Cosmos 44 2.9 22:03:59 10° NNW 22:08:27 76° ENE 22:08:37 75° E
Resurs 01 Rocket 3.9 22:06:23 10° SSW 22:09:51 22° W 22:13:21 10° NW
NOAA 11 4.3 22:10:21 53° E 22:10:49 54° ENE 22:16:10 10° N
S3M 4.3 22:10:10 10° NNW 22:16:23 67° W 22:20:12 25° S
Okean 1 Rocket 3.3 22:18:36 58° NNE 22:18:36 58° NNE 22:22:08 10° N
Cosmos 1553 Rocket 4.5 22:14:03 10° NNW 22:20:01 56° W 22:23:56 21° SSW
Cosmos 2315 Rocket 4.3 22:14:47 10° N 22:20:28 45° ENE 22:20:28 45° ENE
Cosmos 2266 Rocket 4.0 22:17:25 21° SSW 22:21:33 76° W 22:27:35 10° N
SEDSat Delta rocket 4.2 22:15:14 10° W 22:21:44 51° SSW 22:22:31 49° S
Nadezhda 2 Rocket 4.4 22:24:09 63° E 22:24:15 63° E 22:30:20 10° NNE
Cosmos 1850 Rocket 4.0 22:21:34 10° N 22:26:30 66° NE 22:26:30 66° NE
ATLAS 2AS CENTAUR R/B 3.1 22:24:27 10° SSW 22:31:55 77° WNW 22:39:59 10° NNE
BREEZE-M DEB (TANK) 4.5 22:27:39 10° NW 22:32:37 86° SW 22:38:52 40° SE
Meteosat 1 Rocket2 4.3 22:29:05 10° WSW 22:35:14 68° SSE 22:36:11 63° SE
Skynet4D Del rocket 4.0 22:32:12 10° W 22:37:57 60° SW 22:37:57 60° SW
MetOp-A 4.4 22:48:14 66° NNW 22:48:14 66° NNW 22:52:50 10° NNW
DELTA 2 R/B (1) 3.9 22:42:38 10° WNW 22:47:30 63° NNW 22:47:30 63° NNW
BREEZE-M DEB (TANK) 4.5 22:27:52 10° NW 22:48:53 89° SW 22:49:56 70° SE
Lacrosse 5 rocket 3.8 22:54:42 10° NW 22:55:56 19° WNW 22:55:56 19° WNW
ARGOS 3.9 23:04:41 49° NW 23:04:41 49° NW 23:08:37 10° NNW
H-2A R/B 3.5 23:12:37 32° N 23:12:37 32° N 23:15:16 10° N
Cosmos 2263 Rocket 3.0 23:05:34 10° NNW 23:09:45 48° NW 23:09:45 48° NW
Lacrosse 5 3.9 23:20:54 10° W 23:25:01 25° NW 23:29:11 10° N
Cosmos 2360 Rocket 4.0 23:37:17 26° WNW 23:37:45 26° WNW 23:42:25 10° N
Atlas Centaur 2 4.2 23:43:58 10° W 23:47:04 26° W 23:47:04 26° W
